GW6554 Weather Reports


time (UTC)temp
C
wind
direction
speed
KPH
gust
KPH
rain 1hr
cm
rain 24hr
cm
rain mn
cm
humidity
%
barometer
mb
20260509054246 21 191 0.0 1.6 0.00 0.00 0.00 86 1006.8
20260509053745 21 163 1.6 1.6 0.00 0.00 0.00 85 1007.0
20260509053241 21 161 0.0 1.6 0.00 0.00 0.00 85 1007.1
20260509052740 21 168 0.0 0.0 0.00 0.00 0.00 85 1007.0
20260509052237 21 178 4.8 4.8 0.00 0.00 0.00 84 1006.9
20260509051734 21 177 4.8 4.8 0.00 0.00 0.00 84 1007.3
20260509051232 21 2 1.6 1.6 0.00 0.00 0.00 85 1007.7
20260509050729 21 354 4.8 4.8 0.00 0.00 0.00 85 1008.3
20260509050225 21 54 1.6 1.6 0.00 0.00 0.00 85 1007.6
20260509045723 21 61 0.0 0.0 0.00 1.07 1.07 84 1006.9
20260509045219 21 197 1.6 1.6 0.00 1.07 1.07 84 1006.6
20260509044717 21 201 1.6 1.6 0.00 1.07 1.07 84 1006.3
20260509044214 21 156 1.6 3.2 0.00 1.07 1.07 83 1006.2
20260509043710 21 149 0.0 0.0 0.00 1.07 1.07 83 1006.3
20260509043206 21 132 1.6 3.2 0.00 1.07 1.07 83 1005.9
20260509042703 21 193 4.8 8.0 0.00 1.07 1.07 82 1005.6
20260509042159 21 229 3.2 4.8 0.00 1.07 1.07 82 1006.0
20260509041656 21 128 0.0 0.0 0.00 1.07 1.07 82 1005.9
20260509041153 21 86 0.0 1.6 0.00 1.07 1.07 82 1005.9
20260509040652 22 163 3.2 3.2 0.00 1.07 1.07 82 1005.9
20260509040148 22 105 1.6 1.6 0.00 1.07 1.07 82 1005.5
20260509035645 22 119 1.6 1.6 0.00 1.07 1.07 81 1006.1
20260509035141 22 67 1.6 1.6 0.00 1.07 1.07 81 1005.9
20260509034639 22 75 0.0 0.0 0.00 1.07 1.07 81 1006.0
20260509034136 22 66 1.6 1.6 0.00 1.07 1.07 81 1006.9
20260509033633 22 68 0.0 0.0 0.00 1.07 1.07 81 1006.7
20260509033130 22 68 0.0 1.6 0.00 1.07 1.07 81 1006.6
20260509032627 22 69 0.0 0.0 0.00 1.07 1.07 81 1006.1
20260509032124 22 69 0.0 0.0 0.00 1.07 1.07 81 1005.9
20260509031622 22 69 0.0 0.0 0.00 1.07 1.07 81 1005.9
20260509031119 22 72 0.0 0.0 0.00 1.07 1.07 81 1006.0
20260509030617 22 65 0.0 0.0 0.00 1.07 1.07 81 1006.0
20260509030114 22 68 0.0 0.0 0.00 1.07 1.07 81 1005.9
20260509025610 22 62 0.0 0.0 0.00 1.07 1.07 81 1006.0
20260509025106 22 62 0.0 0.0 0.00 1.07 1.07 81 1005.9
20260509024602 22 62 0.0 0.0 0.00 1.07 1.07 81 1005.9
20260509024058 22 57 1.6 3.2 0.00 1.07 1.07 81 1005.6
20260509023556 22 70 0.0 0.0 0.00 1.07 1.07 80 1005.3
20260509023053 22 137 0.0 1.6 0.00 1.07 1.07 81 1005.2
20260509022549 22 200 3.2 3.2 0.00 1.07 1.07 80 1005.0
20260509022047 22 161 1.6 1.6 0.00 1.07 1.07 80 1004.9
20260509021544 22 199 3.2 3.2 0.00 1.07 1.07 80 1004.9
20260509021041 22 197 3.2 4.8 0.00 1.07 1.07 80 1005.1
20260509020539 22 195 1.6 3.2 0.00 1.07 1.07 80 1005.3
20260509020035 22 184 1.6 3.2 0.00 1.07 1.07 80 1005.3
20260509015535 22 177 4.8 8.0 0.00 1.07 1.07 80 1005.2
20260509015031 22 211 1.6 1.6 0.00 1.07 1.07 79 1005.0
20260509014528 22 176 6.4 9.7 0.00 1.07 1.07 79 1005.0
20260509014024 22 177 3.2 3.2 0.00 1.07 1.07 79 1004.8
20260509013521 22 196 3.2 3.2 0.00 1.07 1.07 79 1005.0
20260509013017 22 160 1.6 1.6 0.00 1.07 1.07 79 1005.0
20260509012514 22 196 1.6 3.2 0.00 1.07 1.07 78 1004.8
20260509012010 22 105 0.0 0.0 0.00 1.07 1.07 78 1004.9
20260509011509 22 156 1.6 3.2 0.00 1.07 1.07 77 1004.7
20260509011006 22 199 1.6 1.6 0.00 1.07 1.07 77 1004.7
20260509010503 22 190 1.6 1.6 0.00 1.07 1.07 77 1004.6
20260509010000 22 192 1.6 1.6 0.00 1.07 1.07 76 1004.7
20260509005458 22 157 0.0 0.0 0.00 1.07 1.07 76 1004.6
20260509004957 22 181 3.2 4.8 0.00 1.07 1.07 75 1004.6
20260509004455 23 241 3.2 3.2 0.00 1.07 1.07 75 1004.4
20260509003952 23 183 3.2 4.8 0.00 1.07 1.07 75 1004.2
20260509003450 23 241 3.2 3.2 0.00 1.07 1.07 75 1004.2
20260509002947 23 187 3.2 3.2 0.00 1.07 1.07 74 1003.9
20260509002445 23 202 4.8 9.7 0.00 1.07 1.07 73 1004.0
20260509001941 23 144 1.6 1.6 0.00 1.07 1.07 74 1004.2
20260509001438 23 189 4.8 8.0 0.00 1.07 1.07 74 1004.3
20260509000935 23 122 1.6 3.2 0.00 1.07 1.07 73 1003.9
20260509000433 23 99 1.6 1.6 0.00 1.07 1.07 73 1004.2
20260508235928 23 86 1.6 1.6 0.00 1.07 1.07 72 1004.2
20260508235427 23 216 4.8 4.8 0.00 1.07 1.07 72 1004.3
20260508234923 23 205 4.8 8.0 0.00 1.07 1.07 71 1004.7
20260508234420 23 203 4.8 8.0 0.00 1.07 1.07 72 1004.6
20260508233918 23 111 1.6 1.6 0.00 1.07 1.07 72 1004.5
20260508233417 23 193 4.8 4.8 0.00 1.07 1.07 71 1004.7
20260508232913 23 202 4.8 4.8 0.00 1.07 1.07 71 1004.6
20260508232410 23 191 6.4 8.0 0.00 1.07 1.07 71 1004.5
20260508231908 23 119 3.2 3.2 0.00 1.07 1.07 71 1004.6
20260508231404 23 131 3.2 4.8 0.00 1.07 1.07 71 1004.7
20260508230901 24 235 4.8 8.0 0.00 1.07 1.07 70 1004.9
20260508230358 23 67 1.6 3.2 0.00 1.07 1.07 71 1005.0
20260508225850 23 232 3.2 4.8 0.00 1.07 1.07 72 1005.1
20260508225346 23 196 8.0 9.7 0.00 1.07 1.07 72 1005.1
20260508224844 24 204 6.4 9.7 0.00 1.07 1.07 70 1005.1
20260508224341 24 221 4.8 9.7 0.00 1.07 1.07 70 1004.9
20260508223838 24 252 4.8 8.0 0.00 1.07 1.07 70 1005.2
20260508223335 24 213 3.2 9.7 0.00 1.07 1.07 69 1005.0
20260508222833 24 143 1.6 1.6 0.00 1.07 1.07 69 1004.9
20260508222330 25 190 11.3 14.5 0.00 1.07 1.07 69 1004.9
20260508221827 25 226 3.2 4.8 0.00 1.07 1.07 69 1005.0
20260508221322 25 226 1.6 1.6 0.00 1.07 1.07 66 1004.9
20260508220819 25 206 6.4 8.0 0.00 1.07 1.07 66 1004.7
20260508220316 25 201 4.8 8.0 0.00 1.07 1.07 66 1004.6
20260508215812 25 219 3.2 3.2 0.00 1.07 1.07 67 1004.5
20260508215309 25 165 6.4 11.3 0.00 1.07 1.07 66 1004.6
20260508214806 25 189 4.8 8.0 0.00 1.07 1.07 66 1004.6
20260508214303 25 226 8.0 11.3 0.00 1.07 1.07 67 1004.5
20260508213800 25 242 8.0 11.3 0.00 1.07 1.07 66 1004.5
20260508213256 25 258 6.4 8.0 0.00 1.07 1.07 64 1004.6
20260508212753 25 210 4.8 4.8 0.00 1.07 1.07 66 1004.5
20260508212249 25 189 1.6 3.2 0.00 1.07 1.07 65 1004.7
20260508211745 25 210 8.0 11.3 0.00 1.07 1.07 66 1004.7
20260508211241 25 101 3.2 3.2 0.00 1.07 1.07 67 1004.8
20260508210739 25 207 4.8 8.0 0.00 1.07 1.07 65 1005.1
20260508210235 25 240 9.7 11.3 0.00 1.07 1.07 66 1005.4
20260508205731 24 163 3.2 3.2 0.00 1.07 1.07 68 1005.7
20260508205228 23 198 6.4 8.0 0.00 1.07 1.07 68 1005.7
20260508204724 23 167 4.8 8.0 0.00 1.07 1.07 68 1006.0
20260508204221 23 179 1.6 3.2 0.00 1.07 1.07 69 1006.4
20260508203717 23 194 6.4 9.7 0.00 1.07 1.07 67 1006.2
20260508203213 23 256 4.8 8.0 0.00 1.07 1.07 68 1006.5
20260508202709 24 187 6.4 8.0 0.00 1.07 1.07 67 1006.4
20260508202207 24 207 6.4 8.0 0.00 1.07 1.07 67 1006.6
20260508201703 24 233 4.8 4.8 0.00 1.07 1.07 67 1006.6
20260508201200 24 216 3.2 3.2 0.00 1.07 1.07 66 1006.6
20260508200657 25 162 4.8 9.7 0.00 1.07 1.07 67 1006.6
20260508200153 25 172 4.8 8.0 0.00 1.07 1.07 66 1006.6
20260508195650 25 236 9.7 11.3 0.00 1.07 1.07 65 1006.5
20260508195146 25 177 4.8 8.0 0.00 1.07 1.07 65 1006.6
20260508194643 25 198 6.4 8.0 0.00 1.07 1.07 64 1006.6
20260508194140 25 221 4.8 4.8 0.00 1.07 1.07 65 1006.5
20260508193637 25 288 1.6 1.6 0.00 1.07 1.07 65 1006.6
20260508193133 25 172 4.8 8.0 0.00 1.07 1.07 65 1006.6
20260508192630 25 240 1.6 3.2 0.00 1.07 1.07 63 1006.7
20260508192127 25 145 1.6 1.6 0.00 1.07 1.07 63 1006.7
20260508191624 26 181 4.8 4.8 0.00 1.07 1.07 60 1006.7
20260508191120 25 228 4.8 4.8 0.00 1.07 1.07 63 1006.7
20260508190618 26 212 6.4 8.0 0.00 1.07 1.07 60 1007.0
20260508190114 26 189 4.8 4.8 0.00 1.07 1.07 61 1006.7
20260508185611 26 276 1.6 3.2 0.00 1.07 1.07 58 1006.9
20260508185109 25 283 1.6 3.2 0.00 1.07 1.07 60 1006.7
20260508184606 25 157 3.2 3.2 0.00 1.07 1.07 61 1006.7
20260508184103 26 251 4.8 4.8 0.00 1.07 1.07 58 1006.9
20260508183559 25 97 1.6 3.2 0.00 1.07 1.07 61 1006.9
20260508183055 25 191 4.8 9.7 0.00 1.07 1.07 59 1007.1
20260508182552 25 86 1.6 3.2 0.00 1.07 1.07 59 1007.1
20260508182049 25 259 3.2 4.8 0.00 1.07 1.07 60 1007.4
20260508181549 25 71 0.0 1.6 0.00 1.07 1.07 62 1007.7
20260508181048 25 197 9.7 11.3 0.00 1.07 1.07 60 1007.6
20260508180544 25 48 0.0 1.6 0.00 1.07 1.07 62 1007.6
20260508180041 25 213 8.0 11.3 0.00 1.07 1.07 60 1007.8
20260508175537 25 77 0.0 1.6 0.00 1.07 1.07 62 1007.8
20260508175034 25 61 1.6 3.2 0.00 1.07 1.07 61 1007.9
20260508174532 24 135 4.8 4.8 0.00 1.07 1.07 61 1007.8
20260508174028 25 181 6.4 9.7 0.00 1.07 1.07 62 1008.0
20260508173526 25 60 0.0 1.6 0.00 1.07 1.07 61 1007.9
20260508173021 24 67 0.0 0.0 0.00 1.07 1.07 64 1008.2
20260508172519 23 35 1.6 1.6 0.00 1.07 1.07 63 1008.0
20260508172015 23 163 1.6 1.6 0.00 1.07 1.07 63 1008.3
20260508171512 23 146 1.6 1.6 0.00 1.07 1.07 63 1008.4
20260508171008 23 163 4.8 4.8 0.00 1.07 1.07 64 1008.6
20260508170506 23 259 1.6 3.2 0.00 1.07 1.07 64 1008.8
20260508170003 23 245 4.8 4.8 0.00 1.07 1.07 63 1008.8
20260508165500 22 124 4.8 8.0 0.00 1.07 1.07 65 1008.9
20260508164956 22 204 1.6 8.0 0.00 1.07 1.07 66 1008.9
20260508164453 22 83 1.6 1.6 0.00 1.07 1.07 67 1009.3
20260508163950 22 173 4.8 4.8 0.00 1.07 1.07 65 1009.1
20260508163448 21 222 8.0 11.3 0.00 1.07 1.07 66 1009.3
20260508162943 21 192 0.0 1.6 0.00 1.07 1.07 67 1009.3
20260508162441 21 197 3.2 3.2 0.00 1.07 1.07 68 1009.4
20260508161938 21 171 1.6 3.2 0.00 1.07 1.07 68 1009.8
20260508161435 21 103 1.6 1.6 0.00 1.07 1.07 70 1009.7
20260508160932 20 77 0.0 0.0 0.00 1.07 1.07 71 1009.8
20260508160431 20 209 4.8 8.0 0.00 1.07 1.07 70 1009.8
20260508155927 20 190 6.4 9.7 0.00 1.07 1.07 69 1010.0
20260508155424 20 211 1.6 3.2 0.00 1.07 1.07 70 1010.0
20260508154921 20 209 1.6 1.6 0.00 1.07 1.07 71 1009.9
20260508154419 20 178 1.6 1.6 0.00 1.07 1.07 70 1010.2
20260508153915 20 210 6.4 8.0 0.00 1.07 1.07 71 1010.2
20260508153412 20 233 3.2 4.8 0.00 1.07 1.07 72 1010.3
20260508152908 20 48 1.6 1.6 0.00 1.07 1.07 74 1010.2
20260508152405 20 195 1.6 3.2 0.00 1.07 1.07 72 1010.1
20260508151901 19 108 1.6 1.6 0.00 1.07 1.07 74 1009.9
20260508151358 19 161 1.6 1.6 0.00 1.07 1.07 76 1010.3
20260508150854 19 135 3.2 3.2 0.00 1.07 1.07 75 1010.3
20260508150351 19 202 1.6 4.8 0.00 1.07 1.07 78 1010.1
20260508145847 18 221 1.6 3.2 0.00 1.07 1.07 79 1010.3
20260508145343 18 213 3.2 4.8 0.00 1.07 1.07 81 1010.3
20260508144841 17 178 3.2 3.2 0.00 1.07 1.07 84 1010.3
20260508144339 17 265 1.6 3.2 0.00 1.07 1.07 89 1010.5
20260508143836 17 69 1.6 1.6 0.00 1.07 1.07 94 1010.2
20260508143332 16 130 0.0 1.6 0.00 1.07 1.07 96 1010.2
20260508142829 16 153 0.0 1.6 0.00 1.07 1.07 96 1010.3
20260508142326 16 109 3.2 4.8 0.00 1.07 1.07 97 1010.3
20260508141823 16 86 0.0 1.6 0.00 1.07 1.07 97 1010.5
20260508141320 16 52 0.0 0.0 0.00 1.07 1.07 97 1010.7
20260508140817 16 90 0.0 0.0 0.00 1.07 1.07 98 1010.5
20260508140314 16 175 1.6 1.6 0.00 1.07 1.07 98 1010.6
20260508135810 16 62 0.0 0.0 0.00 1.07 1.07 98 1010.6
20260508135306 16 75 0.0 1.6 0.00 1.07 1.07 98 1010.5
20260508134802 16 62 0.0 0.0 0.00 1.07 1.07 98 1010.4
20260508134259 16 64 0.0 0.0 0.00 1.07 1.07 98 1010.4
20260508133756 15 66 0.0 0.0 0.00 1.07 1.07 98 1010.4
20260508133254 15 77 0.0 0.0 0.00 1.07 1.07 98 1010.3
20260508132751 15 65 0.0 0.0 0.00 1.07 1.07 98 1010.3
20260508132248 15 64 0.0 0.0 0.00 1.07 1.07 98 1010.7
20260508131744 15 67 0.0 0.0 0.00 1.07 1.07 98 1010.5
20260508131240 15 66 0.0 0.0 0.00 1.07 1.07 98 1010.5
20260508130737 15 57 0.0 0.0 0.18 1.07 1.07 98 1010.6
20260508130234 15 58 0.0 0.0 0.18 1.07 1.07 98 1010.6
20260508125730 15 61 0.0 0.0 0.00 1.04 1.04 98 1010.8
20260508125226 15 61 0.0 0.0 0.13 1.04 1.04 98 1011.1
20260508124725 15 62 0.0 0.0 0.13 1.04 1.04 98 1010.9
20260508124222 15 68 0.0 0.0 0.00 1.02 1.02 98 1010.8
20260508123720 15 161 0.0 0.0 0.00 1.02 1.02 98 1010.7
20260508123218 15 182 1.6 1.6 0.00 1.02 1.02 98 1010.9
20260508122713 15 66 0.0 0.0 0.18 1.02 1.02 98 1011.1
20260508122210 15 67 0.0 0.0 0.18 1.02 1.02 98 1010.9
20260508121708 15 70 0.0 0.0 0.18 1.02 1.02 98 1010.9
20260508121207 15 101 0.0 0.0 0.00 0.99 0.99 98 1010.8
20260508120703 15 220 3.2 3.2 0.00 0.99 0.99 98 1010.8
20260508120201 15 122 1.6 1.6 0.00 0.99 0.99 98 1010.3
20260508115659 15 147 0.0 0.0 0.00 0.99 0.99 98 1010.6
20260508115155 15 60 0.0 1.6 0.00 0.99 0.99 99 1010.8
20260508114653 15 168 0.0 1.6 0.00 0.99 0.99 99 1010.7
20260508114149 15 61 0.0 0.0 0.00 0.99 0.99 99 1010.6
20260508113646 15 64 0.0 0.0 0.00 0.99 0.99 99 1010.6
20260508113144 15 65 0.0 0.0 0.00 0.99 0.99 99 1010.6
20260508112635 15 51 0.0 0.0 0.00 0.99 0.99 99 1010.7
20260508112132 15 50 0.0 0.0 0.61 0.99 0.99 98 1010.5
20260508111628 15 50 0.0 1.6 1.19 0.99 0.99 98 1010.3
20260508111126 15 52 0.0 0.0 0.89 0.91 0.91 98 1010.4
20260508110624 15 46 0.0 0.0 0.18 0.79 0.79 98 1010.4
20260508110120 15 45 0.0 0.0 0.00 0.76 0.76 98 1010.7
20260508105619 15 20 0.0 0.0 0.00 0.76 0.76 98 1011.3
20260508105117 15 274 1.6 3.2 0.00 0.76 0.76 98 1011.4
20260508104614 15 73 0.0 0.0 0.00 0.76 0.76 98 1011.1
20260508104111 15 80 1.6 1.6 0.00 0.76 0.76 98 1010.4
20260508103608 15 38 0.0 0.0 0.00 0.76 0.76 98 1010.9
20260508103105 15 17 0.0 0.0 0.13 0.76 0.76 98 1011.1
20260508102603 15 52 0.0 0.0 1.37 0.76 0.76 98 1010.5
20260508102100 15 53 0.0 0.0 1.85 0.74 0.74 98 1009.9
20260508101557 15 267 0.0 0.0 0.61 0.53 0.53 98 1010.3
20260508101054 15 206 0.0 1.6 0.00 0.43 0.43 98 1010.2
20260508100552 15 116 1.6 1.6 0.00 0.43 0.43 98 1009.5
20260508100049 15 114 0.0 0.0 0.00 0.43 0.43 98 1009.7
20260508095546 15 59 0.0 0.0 0.00 0.43 0.43 98 1009.5
20260508095043 15 50 0.0 0.0 0.00 0.43 0.43 98 1009.8
20260508094540 15 49 0.0 0.0 0.00 0.43 0.43 97 1009.8
20260508094037 15 48 0.0 0.0 0.00 0.43 0.43 97 1010.1
20260508093534 15 51 0.0 0.0 0.00 0.43 0.43 97 1009.7
20260508093032 15 50 0.0 0.0 0.00 0.43 0.43 97 1009.9
20260508092529 15 40 0.0 0.0 0.00 0.43 0.43 97 1010.1
20260508092028 15 58 0.0 0.0 0.00 0.43 0.43 97 1009.8
20260508091524 15 69 0.0 0.0 0.00 0.43 0.43 97 1009.7
20260508091021 15 52 0.0 0.0 0.00 0.43 0.43 96 1010.2
20260508090519 15 50 0.0 0.0 0.13 0.43 0.43 96 1010.2
20260508090015 15 53 0.0 0.0 0.13 0.43 0.43 96 1010.2
20260508085512 15 57 0.0 0.0 0.00 0.41 0.41 96 1010.2
20260508085009 15 53 0.0 1.6 0.00 0.41 0.41 95 1010.7
20260508084506 15 19 0.0 0.0 0.00 0.41 0.41 95 1010.7
20260508084004 15 27 1.6 1.6 0.18 0.41 0.41 94 1010.4
20260508083501 15 46 1.6 1.6 0.18 0.41 0.41 94 1010.4
20260508082956 15 69 1.6 1.6 0.48 0.38 0.38 94 1009.7
20260508082453 15 63 0.0 1.6 0.48 0.38 0.38 93 1010.0
20260508081951 15 62 1.6 1.6 0.00 0.30 0.30 92 1010.5
20260508081448 15 57 0.0 0.0 1.02 0.30 0.30 91 1011.1
20260508080943 16 59 0.0 0.0 1.68 0.30 0.30 89 1010.8
20260508080442 16 69 0.0 0.0 0.79 0.13 0.13 84 1010.9
20260508075938 16 96 0.0 0.0 0.30 0.05 0.05 83 1011.0
20260508075435 16 126 0.0 0.0 0.00 0.00 0.00 81 1011.6
20260508074933 16 159 0.0 0.0 0.00 0.00 0.00 81 1011.9
20260508074430 16 135 0.0 0.0 0.00 0.00 0.00 82 1011.7
20260508073927 16 138 0.0 0.0 0.00 0.00 0.00 82 1011.7
20260508073425 16 131 0.0 0.0 0.00 0.00 0.00 82 1011.5
20260508072921 16 131 0.0 0.0 0.00 0.00 0.00 82 1011.3
20260508072417 16 131 0.0 0.0 0.00 0.00 0.00 82 1011.0
20260508071915 16 131 0.0 0.0 0.00 0.00 0.00 82 1011.2
20260508071413 16 131 0.0 0.0 0.00 0.00 0.00 82 1011.0
20260508070911 16 131 0.0 0.0 0.00 0.00 0.00 82 1011.1
20260508070408 16 131 0.0 0.0 0.00 0.00 0.00 82 1011.3
20260508065906 16 131 0.0 0.0 0.00 0.00 0.00 82 1011.5
20260508065404 16 131 0.0 0.0 0.00 0.00 0.00 82 1011.5
20260508064902 16 131 0.0 0.0 0.00 0.00 0.00 82 1011.3
20260508064358 16 131 0.0 0.0 0.00 0.00 0.00 82 1011.5
20260508063857 16 131 0.0 0.0 0.00 0.00 0.00 81 1011.8
20260508063354 16 131 0.0 0.0 0.00 0.00 0.00 81 1012.0
20260508062851 16 131 0.0 0.0 0.00 0.00 0.00 81 1011.8
20260508062348 16 131 0.0 0.0 0.00 0.00 0.00 81 1011.9
20260508061846 16 131 0.0 0.0 0.00 0.00 0.00 81 1011.8
20260508061343 16 131 0.0 0.0 0.00 0.00 0.00 81 1012.0
20260508060839 16 131 0.0 0.0 0.00 0.00 0.00 81 1011.8
20260508060337 16 131 0.0 0.0 0.00 0.00 0.00 81 1011.5
20260508055831 16 131 0.0 0.0 0.00 0.00 0.00 81 1011.7
20260508055330 16 131 0.0 0.0 0.00 0.00 0.00 81 1011.8
20260508054826 16 131 0.0 0.0 0.00 0.00 0.00 81 1011.6